Overview Statistics Trail Chart Weather Telemetry Raw packets
 

This is the latest recevied weather packets stored in our database for station/object IW1RCO-13. If no packets are shown the sender has not sent any weather packets the latest 10 day(s).

<< 35 36 37 38 39 40 41 >>
Time Temp. Humidity Pressure Rain* Wind** Luminosity Snow
1788394168 18.33° C 85% 1019.2 hPa - - - -
1788393871 18.33° C 86% 1019.6 hPa - - - -
1788393567 18.33° C 87% 1019.2 hPa - - - -
1788393271 18.33° C 87% 1019.5 hPa - - - -
1788392967 18.33° C 87% 1019.5 hPa - - - -
1788392670 18.33° C 87% 1019.6 hPa - - - -
1788392367 18.33° C 87% 1018.8 hPa - - - -
1788392070 17.78° C 86% 1019.2 hPa - - - -
1788391470 17.78° C 88% 1019.5 hPa - - - -
1788391182 18.33° C 88% 1019.5 hPa - - - -
1788390870 18.33° C 87% 1019.2 hPa - - - -
1788390566 18.33° C 87% 1018.9 hPa - - - -
1788388772 18.33° C 88% 1019.5 hPa - - - -
1788388469 18.33° C 87% 1018.9 hPa - - - -
1788388172 18.33° C 88% 1019.5 hPa - - - -
1788387868 18.89° C 88% 1019.5 hPa - - - -
1788387571 18.33° C 89% 1019.2 hPa - - - -
1788387268 18.33° C 89% 1019.1 hPa - - - -
1788386971 18.89° C 89% 1018.9 hPa - - - -
1788386667 18.89° C 88% 1019.5 hPa - - - -
1788386370 19.44° C 88% 1018.8 hPa - - - -
1788386067 19.44° C 89% 1018.8 hPa - - - -
1788385770 18.89° C 89% 1018.9 hPa - - - -
1788385467 18.89° C 89% 1019.2 hPa - - - -
1788385170 18.89° C 89% 1018.2 hPa - - - -

* Rain since midnight (hover to see other rain measurements)
** Current wind speed in m/s (hover to see current wind gust speed)